Location: Boullarre
(49.1305°N, 3.0047°E)
Time: 13:26:52
(UTC+00:00)

Cosmos 1850 Rocket - Pass Details

Date: 03 February 2023
Orbit: 753 x 784 km, 74.0° (Epoch: 22 March)

Event Time Altitude Azimuth Distance (km) Brightness Sun altitude
Rises 18:23:22 0° 179° (S) 3,202 7.3 -15.8°
Reaches altitude 10° 18:25:50 10° 171° (S) 2,279 6.4 -16.2°
Maximum altitude 18:30:37 39° 104° (ESE) 1,118 4.4 -17.0°
Enters shadow 18:32:52 26° 55° (NE) 1,461 5.0 -17.4°
